TimeCET,TemperatureF,Dew PointF,Humidity,Sea Level PressureIn,VisibilityMPH,Wind Direction,Wind SpeedMPH,Gust SpeedMPH,PrecipitationIn,Events,Conditions,WindDirDegrees,DateUTC
12:15 AM,53.6,50.0,88,30.27,-9999.0,WNW,4.6,-,N/A,,Clear,300,2013-01-08 23:15:00
12:45 AM,53.6,50.0,88,30.27,-9999.0,NNW,6.9,-,N/A,,Clear,330,2013-01-08 23:45:00
1:00 AM,52,49,86,30.28,7,NW,5.8,,,,,320,2013-01-09 00:00:00
1:15 AM,53.6,50.0,88,30.27,-9999.0,NW,5.8,-,N/A,,Clear,310,2013-01-09 00:15:00
1:45 AM,53.6,50.0,88,30.27,6.2,NW,6.9,-,N/A,,Scattered Clouds,310,2013-01-09 00:45:00
2:15 AM,53.6,50.0,88,30.27,6.2,WNW,5.8,-,N/A,,Partly Cloudy,290,2013-01-09 01:15:00
2:45 AM,55.4,51.8,88,30.27,6.2,NW,8.1,-,N/A,,Mostly Cloudy,320,2013-01-09 01:45:00
3:15 AM,55.4,50.0,82,30.24,6.2,NW,9.2,-,N/A,,Partly Cloudy,310,2013-01-09 02:15:00
3:45 AM,55.4,50.0,82,30.24,6.2,NW,12.7,-,N/A,,Scattered Clouds,310,2013-01-09 02:45:00
4:00 AM,56,49,71,30.25,7,NW,11.5,,,,Scattered Clouds,310,2013-01-09 03:00:00
4:15 AM,55.4,50.0,82,30.24,6.2,NW,10.4,-,N/A,,Mostly Cloudy,310,2013-01-09 03:15:00
4:45 AM,55.4,50.0,82,30.24,6.2,NW,11.5,-,N/A,,Mostly Cloudy,320,2013-01-09 03:45:00
5:15 AM,55.4,50.0,82,30.24,6.2,NW,6.9,-,N/A,,Mostly Cloudy,310,2013-01-09 04:15:00
5:45 AM,55.4,51.8,88,30.24,6.2,West,5.8,-,N/A,,Mostly Cloudy,280,2013-01-09 04:45:00
6:15 AM,57.2,51.8,82,30.24,6.2,NW,11.5,-,N/A,,Mostly Cloudy,310,2013-01-09 05:15:00
6:45 AM,57.2,50.0,77,30.24,6.2,WNW,10.4,-,N/A,,Mostly Cloudy,300,2013-01-09 05:45:00
7:00 AM,57,51,76,30.25,6,NW,9.2,,,,,310,2013-01-09 06:00:00
7:15 AM,57.2,51.8,82,30.24,6.2,NW,12.7,-,N/A,,Mostly Cloudy,320,2013-01-09 06:15:00
7:45 AM,57.2,50.0,77,30.24,6.2,NW,9.2,-,N/A,,Mostly Cloudy,310,2013-01-09 06:45:00
8:15 AM,57.2,48.2,72,30.24,6.2,NW,10.4,-,N/A,,Mostly Cloudy,310,2013-01-09 07:15:00
8:45 AM,59.0,48.2,67,30.24,6.2,NW,13.8,-,N/A,,Mostly Cloudy,310,2013-01-09 07:45:00
9:15 AM,59.0,50.0,72,30.27,6.2,NW,10.4,-,N/A,,Mostly Cloudy,310,2013-01-09 08:15:00
9:45 AM,59.0,50.0,72,30.27,6.2,NW,11.5,-,N/A,,Mostly Cloudy,320,2013-01-09 08:45:00
10:00 AM,59,50,65,30.28,9,NW,12.7,,,,Mostly Cloudy,320,2013-01-09 09:00:00
10:15 AM,59.0,51.8,77,30.27,6.2,NW,13.8,-,N/A,,Mostly Cloudy,310,2013-01-09 09:15:00
10:45 AM,59.0,51.8,77,30.27,6.2,NW,11.5,-,N/A,,Mostly Cloudy,320,2013-01-09 09:45:00
11:15 AM,60.8,51.8,72,30.27,6.2,NW,12.7,-,N/A,,Mostly Cloudy,310,2013-01-09 10:15:00
11:45 AM,60.8,51.8,72,30.24,6.2,NW,13.8,-,N/A,,Mostly Cloudy,310,2013-01-09 10:45:00
12:15 PM,60.8,50.0,68,30.24,6.2,WNW,17.3,-,N/A,,Mostly Cloudy,300,2013-01-09 11:15:00
12:45 PM,60.8,50.0,68,30.24,6.2,WNW,16.1,-,N/A,,Scattered Clouds,300,2013-01-09 11:45:00
1:00 PM,62,52,60,30.24,12,WNW,17.3,,,,,290,2013-01-09 12:00:00
1:15 PM,60.8,51.8,72,30.21,6.2,WNW,18.4,-,N/A,,Scattered Clouds,290,2013-01-09 12:15:00
1:45 PM,60.8,51.8,72,30.21,6.2,WNW,17.3,-,N/A,,Mostly Cloudy,290,2013-01-09 12:45:00
2:15 PM,60.8,50.0,68,30.21,6.2,WNW,15.0,-,N/A,,Scattered Clouds,290,2013-01-09 13:15:00
2:45 PM,60.8,51.8,72,30.21,6.2,WNW,12.7,-,N/A,,Scattered Clouds,290,2013-01-09 13:45:00
3:15 PM,60.8,51.8,72,30.21,6.2,West,13.8,-,N/A,,Scattered Clouds,280,2013-01-09 14:15:00
3:45 PM,59.0,50.0,72,30.21,6.2,WNW,13.8,-,N/A,,Scattered Clouds,290,2013-01-09 14:45:00
4:00 PM,60,51,63,30.22,12,WNW,12.7,,,,Partly Cloudy,290,2013-01-09 15:00:00
4:15 PM,59.0,51.8,77,30.21,6.2,WNW,11.5,-,N/A,,Scattered Clouds,290,2013-01-09 15:15:00
4:45 PM,59.0,50.0,72,30.21,6.2,WNW,11.5,-,N/A,,Scattered Clouds,290,2013-01-09 15:45:00
5:15 PM,57.2,50.0,77,30.21,6.2,West,10.4,-,N/A,,Scattered Clouds,280,2013-01-09 16:15:00
5:45 PM,57.2,50.0,77,30.21,6.2,West,9.2,-,N/A,,Mostly Cloudy,280,2013-01-09 16:45:00
6:15 PM,57.2,50.0,77,30.21,6.2,WNW,8.1,-,N/A,,Mostly Cloudy,290,2013-01-09 17:15:00
6:45 PM,57.2,50.0,77,30.21,6.2,NW,8.1,-,N/A,,Mostly Cloudy,310,2013-01-09 17:45:00
7:00 PM,58,52,73,30.22,9,NW,8.1,,,,,320,2013-01-09 18:00:00
7:15 PM,57.2,51.8,82,30.21,6.2,NW,9.2,-,N/A,Rain,Light Rain,320,2013-01-09 18:15:00
7:45 PM,57.2,51.8,82,30.21,6.2,NNW,9.2,-,N/A,,Mostly Cloudy,330,2013-01-09 18:45:00
8:15 PM,55.4,50.0,82,30.21,6.2,NW,8.1,-,N/A,,Mostly Cloudy,320,2013-01-09 19:15:00
8:45 PM,55.4,50.0,82,30.21,6.2,NW,9.2,-,N/A,,Mostly Cloudy,310,2013-01-09 19:45:00
9:15 PM,57.2,50.0,77,30.21,6.2,NW,9.2,-,N/A,,Mostly Cloudy,320,2013-01-09 20:15:00
9:45 PM,57.2,50.0,77,30.21,6.2,NW,11.5,-,N/A,,Mostly Cloudy,310,2013-01-09 20:45:00
10:00 PM,57,50,72,30.21,7,NW,11.5,,,,Partly Cloudy,310,2013-01-09 21:00:00
10:15 PM,57.2,50.0,77,30.21,6.2,NW,11.5,-,N/A,,Overcast,310,2013-01-09 21:15:00
10:45 PM,57.2,48.2,72,30.18,6.2,NW,12.7,-,N/A,,Overcast,320,2013-01-09 21:45:00
11:15 PM,57.2,46.4,67,30.18,6.2,NW,11.5,-,N/A,,Overcast,310,2013-01-09 22:15:00
11:45 PM,57.2,48.2,72,30.18,6.2,NW,10.4,-,N/A,,Overcast,320,2013-01-09 22:45:00